Weather in Fineyevo

Russia / Vladimir Oblast     56°02′27″N   38°53′09″E
temp.,
°C
wind,
m/s
gust,
m/s
humid.,
%
clouds,
%
prec.,
mm/h
press.,
hPa
HPBL,
m
24 september, fri
fri2400:00+8sse2696100 0.0 1009163
03:00+7s279665 0.0 1008218
06:00+4sse289780 0.0 1007182
09:00+7sse4991100 0.1 1007549
12:00+9sse598292 0.6 10061091
15:00+10sse5882100 1.3 10061007
18:00+9se41083100 0.1 1006651
21:00+7se4118990 0.2 1006433
25 september, sat
sat2500:00+6se3892100 0.0 1007239
03:00+5ese269720 0.0 1007140
06:00+6se289385 0.0 1007222
09:00+8sse398076 0.0 1008440
12:00+13s475997 0.0 10081498
15:00+11ssw2577100 0.3 1008449
18:00+9s2787100 0.0 1008305
21:00+8s2889100 0.1 1008292
26 september, sun
sun2600:00+8s2694100 0.4 1007210
03:00+8sse2695100 0.5 1006204
06:00+8sse2598100 1.4 1005247
09:00+8se1296100 4.9 100583
12:00+8nw2396100 3.6 1006209
15:00+8ne3795100 4.8 1008452
18:00+8n4995100 0.3 1010347
21:00+8n499492 0.4 1013389
27 september, mon
mon2700:00+8n31095100 0.1 1014444
03:00+7n3109710 0.2 1017333
06:00+6n41196100 0.0 1018352
09:00+8n4109097 0.0 1019467
12:00+9nne4786100 0.0 1021716
15:00+8n4893100 0.1 1022591
18:00+8n3892100 0.0 1024518
21:00+8nne3893100 0.0 1025539
28 september, tue
tue2800:00+8nne3794100 0.0 1026534
03:00+8ne3794100 0.0 1028513
06:00+7ne379192 0.0 1029461
09:00+7ne3684100 0.1 1030592
12:00+10ene346367 0.0 10311084
15:00+11ne235516 0.0 10311186
18:00+8ne227636 0.0 103230
21:00+6ne238319 0.0 103354